EW6514 Weather Reports


Display with metric or nautical units.
time (UTC)temp
F
wind
direction
speed
MPH
gust
MPH
rain 1hr
in
rain 24hr
in
rain mn
in
humidity
%
barometer
mb
20260507070045 55 0 0.0 0.0 0.00 0.00 0.00 94 1005.1
20260507065537 55 0 0.0 0.0 0.00 0.00 0.00 94 1005.1
20260507065037 56 0 0.0 0.0 0.00 0.00 0.00 94 1005.1
20260507064542 56 0 0.0 0.0 0.00 0.00 0.00 94 1005.1
20260507064037 56 0 0.0 0.0 0.00 0.00 0.00 94 1004.9
20260507063538 56 0 0.0 0.0 0.00 0.00 0.00 94 1005.0
20260507063048 56 0 0.0 0.0 0.00 0.00 0.00 94 1004.9
20260507062538 56 0 0.0 0.0 0.00 0.00 0.00 94 1005.0
20260507062038 56 0 0.0 0.0 0.00 0.00 0.00 94 1005.3
20260507061545 56 0 0.0 1.0 0.00 0.00 0.00 94 1005.3
20260507061038 56 0 0.0 1.0 0.00 0.00 0.00 94 1005.5
20260507060538 56 0 0.0 1.0 0.00 0.00 0.00 94 1005.6
20260507060049 56 0 0.0 1.0 0.00 0.00 0.00 94 1005.5
20260507055538 56 231 0.0 1.0 0.00 0.00 0.00 94 1005.6
20260507055037 56 0 0.0 1.0 0.00 0.00 0.00 94 1005.7
20260507054545 56 0 0.0 1.0 0.00 0.00 0.00 94 1005.5
20260507054037 56 0 0.0 1.0 0.00 0.00 0.00 94 1005.6
20260507053538 56 0 0.0 4.0 0.00 0.00 0.00 94 1005.6
20260507053111 56 221 0.0 4.0 0.00 0.00 0.00 94 1005.6
20260507052538 56 240 0.0 2.0 0.00 0.00 0.00 94 1005.6
20260507052037 56 79 0.0 0.0 0.00 0.00 0.00 94 1005.7
20260507051552 56 0 0.0 3.0 0.00 0.00 0.00 94 1005.7
20260507051037 56 0 0.0 3.0 0.00 0.00 0.00 94 1005.8
20260507050538 56 101 1.0 2.0 0.00 0.00 0.00 94 1005.9
20260507050046 56 222 0.0 6.0 0.00 0.00 0.00 94 1006.1
20260507045539 56 0 0.0 6.0 0.00 0.00 0.00 94 1006.0
20260507045039 56 271 0.0 6.0 0.00 0.00 0.00 94 1006.0
20260507044546 56 0 0.0 1.0 0.00 0.00 0.00 94 1005.9
20260507044037 56 246 0.0 2.0 0.00 0.00 0.00 94 1005.9
20260507043537 56 0 0.0 2.0 0.00 0.00 0.00 94 1005.8
20260507043047 56 218 0.0 2.0 0.00 0.00 0.00 94 1006.0
20260507042537 56 184 0.0 2.0 0.00 0.00 0.00 94 1005.7
20260507042037 56 0 0.0 1.0 0.00 0.00 0.00 94 1005.8
20260507041549 56 0 0.0 2.0 0.00 0.00 0.00 94 1005.9
20260507041037 56 0 0.0 2.0 0.00 0.00 0.00 94 1005.8
20260507040538 56 0 0.0 2.0 0.00 0.00 0.00 94 1005.8
20260507040053 56 0 0.0 3.0 0.00 0.00 0.00 94 1006.0
20260507035538 56 60 0.0 3.0 0.00 0.00 0.00 94 1006.0
20260507035037 56 226 0.0 9.0 0.00 0.00 0.00 94 1006.1
20260507034550 56 266 0.0 9.0 0.00 0.00 0.00 94 1006.3
20260507034037 56 0 1.0 6.0 0.00 0.00 0.00 94 1006.4
20260507033538 56 324 1.0 6.0 0.00 0.00 0.00 94 1006.1
20260507033051 56 312 0.0 2.0 0.00 0.00 0.00 94 1006.1
20260507032539 56 0 0.0 6.0 0.00 0.00 0.00 94 1006.0
20260507032037 56 255 0.0 6.0 0.00 0.00 0.00 94 1006.1
20260507031553 56 284 2.0 6.0 0.00 0.00 0.00 94 1006.0
20260507031040 56 274 0.0 4.0 0.00 0.00 0.00 94 1005.8
20260507030537 56 233 1.0 3.0 0.00 0.00 0.00 94 1005.9
20260507030050 56 287 0.0 4.0 0.00 0.00 0.00 94 1005.9
20260507025537 56 323 0.0 4.0 0.00 0.00 0.00 94 1005.8
20260507025037 56 302 0.0 5.0 0.00 0.00 0.00 94 1005.7
20260507024544 56 237 1.0 5.0 0.00 0.00 0.00 94 1005.5
20260507024038 56 0 0.0 3.0 0.00 0.00 0.00 94 1005.4
20260507023537 56 0 0.0 3.0 0.00 0.00 0.00 94 1005.7
20260507023047 56 267 0.0 6.0 0.00 0.00 0.00 94 1005.7
20260507022537 56 0 0.0 6.0 0.00 0.00 0.00 94 1005.6
20260507022039 56 266 2.0 6.0 0.00 0.00 0.00 94 1005.7
20260507021545 56 268 0.0 4.0 0.00 0.00 0.00 94 1005.7
20260507021038 56 238 1.0 4.0 0.00 0.00 0.00 94 1006.0
20260507020538 56 238 0.0 3.0 0.00 0.00 0.00 94 1006.0
20260507020047 56 0 0.0 4.0 0.00 0.00 0.00 94 1006.3
20260507015537 56 283 0.0 4.0 0.00 0.00 0.00 94 1006.4
20260507015038 56 288 1.0 4.0 0.00 0.00 0.00 94 1006.2
20260507014601 56 218 1.0 4.0 0.00 0.00 0.00 94 1006.3
20260507014038 56 70 0.0 4.0 0.00 0.00 0.00 94 1006.5
20260507013538 56 240 1.0 4.0 0.00 0.00 0.00 94 1006.5
20260507013050 56 57 0.0 5.0 0.00 0.00 0.00 94 1006.4
20260507012537 56 233 1.0 5.0 0.00 0.00 0.00 94 1006.5
20260507012037 56 288 1.0 5.0 0.00 0.00 0.00 94 1006.5
20260507011545 56 218 1.0 5.0 0.00 0.00 0.00 94 1006.5
20260507011038 56 270 0.0 5.0 0.00 0.00 0.00 94 1006.6
20260507010537 56 224 1.0 5.0 0.00 0.00 0.00 94 1006.5
20260507010054 56 285 1.0 5.0 0.00 0.00 0.00 94 1006.5
20260507005535 56 235 0.0 5.0 0.00 0.00 0.00 93 1006.6
20260507005036 57 263 1.0 5.0 0.00 0.00 0.00 93 1006.6
20260507004559 56 235 1.0 6.0 0.00 0.00 0.00 93 1006.6
20260507004036 57 254 0.0 6.0 0.00 0.00 0.00 93 1006.6
20260507003538 57 193 2.0 6.0 0.00 0.00 0.00 93 1006.6
20260507003046 57 279 1.0 9.0 0.00 0.00 0.00 93 1006.7
20260507002538 57 221 1.0 9.0 0.00 0.00 0.00 93 1006.6
20260507002038 57 281 2.0 7.0 0.00 0.00 0.00 93 1006.6
20260507001551 57 217 1.0 7.0 0.00 0.00 0.00 94 1006.4
20260507001037 57 253 2.0 11.0 0.00 0.00 0.00 94 1006.4
20260507000538 57 29 2.0 11.0 0.00 0.00 0.00 94 1006.6
20260507000048 57 306 2.0 10.0 0.00 0.00 0.00 94 1006.5
20260506235539 57 0 1.0 12.0 0.00 0.00 0.00 94 1006.6
20260506235038 57 279 1.0 12.0 0.00 0.00 0.00 93 1006.4
20260506234545 57 280 2.0 9.0 0.00 0.00 0.00 93 1006.5
20260506234040 57 202 1.0 9.0 0.00 0.00 0.00 93 1006.5
20260506233540 57 56 0.0 6.0 0.00 0.00 0.00 93 1006.5
20260506233052 57 88 1.0 6.0 0.00 0.00 0.00 93 1006.5
20260506232537 57 289 2.0 6.0 0.00 0.00 0.00 92 1006.6
20260506232035 57 0 0.0 5.0 0.00 0.00 0.00 92 1006.7
20260506231546 57 99 0.0 5.0 0.00 0.00 0.00 92 1006.6
20260506231038 57 272 0.0 5.0 0.00 0.00 0.00 92 1006.5
20260506230537 58 127 0.0 2.0 0.00 0.00 0.00 91 1006.5
20260506230051 58 233 0.0 5.0 0.00 0.00 0.00 91 1006.5
20260506225541 58 216 0.0 5.0 0.00 0.00 0.00 91 1006.5
20260506225038 58 223 2.0 5.0 0.00 0.00 0.00 90 1006.6
20260506224549 58 213 1.0 5.0 0.00 0.00 0.00 90 1006.7
20260506224039 59 0 1.0 14.0 0.00 0.00 0.00 89 1006.6
20260506223537 59 291 1.0 14.0 0.00 0.00 0.00 89 1006.6
20260506223045 59 257 2.0 7.0 0.00 0.00 0.00 89 1007.0
20260506222538 59 251 2.0 7.0 0.00 0.00 0.00 89 1006.9
20260506222038 59 0 2.0 7.0 0.00 0.00 0.00 89 1006.9
20260506221545 59 243 2.0 7.0 0.00 0.00 0.00 89 1006.9
20260506221037 59 189 2.0 5.0 0.00 0.00 0.00 89 1007.0
20260506220537 59 210 2.0 5.0 0.00 0.00 0.00 89 1007.0
20260506220049 60 271 1.0 4.0 0.00 0.00 0.00 89 1007.0
20260506215537 60 226 0.0 7.0 0.00 0.00 0.00 89 1007.0
20260506215039 60 207 1.0 7.0 0.00 0.00 0.00 89 1007.0
20260506214600 60 140 2.0 7.0 0.00 0.00 0.00 88 1007.1
20260506214036 60 205 1.0 5.0 0.00 0.00 0.00 88 1006.9
20260506213541 60 0 0.0 3.0 0.00 0.00 0.00 87 1007.1
20260506213049 61 235 1.0 8.0 0.00 0.00 0.00 87 1007.1
20260506212538 61 264 1.0 8.0 0.00 0.00 0.00 86 1007.2
20260506212038 61 244 2.0 8.0 0.00 0.00 0.00 85 1007.2
20260506211603 61 84 1.0 7.0 0.00 0.00 0.00 85 1007.3
20260506211038 61 260 1.0 7.0 0.00 0.00 0.00 85 1007.3
20260506210537 61 280 2.0 7.0 0.00 0.00 0.00 85 1007.2
20260506210050 61 102 1.0 7.0 0.00 0.00 0.00 85 1007.3
20260506205534 60 280 1.0 6.0 0.00 0.00 0.00 85 1007.4
20260506205034 60 0 2.0 10.0 0.00 0.00 0.00 86 1007.4
20260506204549 60 0 1.0 10.0 0.00 0.00 0.00 86 1007.5
20260506204033 60 254 2.0 8.0 0.00 0.00 0.00 87 1007.4
20260506203534 60 153 1.0 7.0 0.00 0.00 0.00 87 1007.6
20260506203045 60 202 1.0 7.0 0.00 0.00 0.00 87 1007.5
20260506202536 60 83 2.0 11.0 0.00 0.00 0.00 87 1007.7
20260506202036 60 34 1.0 11.0 0.00 0.00 0.00 87 1007.7
20260506201548 60 251 2.0 11.0 0.00 0.00 0.00 86 1007.7
20260506201036 60 257 2.0 6.0 0.00 0.00 0.00 84 1007.9
20260506200535 61 237 1.0 6.0 0.00 0.00 0.00 83 1007.9
20260506200049 61 196 0.0 6.0 0.00 0.00 0.00 81 1007.9
20260506195536 62 289 1.0 9.0 0.00 0.00 0.00 78 1007.9
20260506195038 63 236 1.0 9.0 0.00 0.00 0.00 77 1007.9
20260506194544 63 246 2.0 9.0 0.00 0.00 0.00 75 1008.0
20260506194039 63 203 1.0 9.0 0.00 0.00 0.00 74 1007.9
20260506193536 63 243 3.0 9.0 0.00 0.00 0.00 74 1007.9
20260506193042 63 290 3.0 11.0 0.00 0.00 0.00 74 1008.0
20260506192534 64 299 4.0 12.0 0.00 0.00 0.00 73 1008.0
20260506192035 64 239 4.0 12.0 0.00 0.00 0.00 73 1008.1
20260506191554 64 174 3.0 9.0 0.00 0.00 0.00 73 1008.1
20260506191034 64 110 2.0 8.0 0.00 0.00 0.00 73 1007.8
20260506190535 64 225 2.0 8.0 0.00 0.00 0.00 73 1007.8
20260506190045 64 304 2.0 9.0 0.00 0.00 0.00 73 1007.9
20260506185537 64 251 3.0 10.0 0.00 0.00 0.00 73 1007.8
20260506185035 65 347 3.0 12.0 0.00 0.00 0.00 73 1008.1
20260506184551 65 250 2.0 12.0 0.00 0.00 0.00 73 1007.9
20260506184036 65 38 4.0 12.0 0.00 0.00 0.00 72 1008.0
20260506183534 65 284 3.0 11.0 0.00 0.00 0.00 72 1008.2
20260506183052 65 264 2.0 7.0 0.00 0.00 0.00 71 1008.1
20260506182534 66 275 2.0 11.0 0.00 0.00 0.00 71 1008.1
20260506182034 66 259 2.0 11.0 0.00 0.00 0.00 70 1008.4
20260506181555 66 260 2.0 10.0 0.00 0.00 0.00 70 1008.4
20260506181034 66 265 3.0 17.0 0.00 0.00 0.00 70 1008.5
20260506180536 66 23 4.0 17.0 0.00 0.00 0.00 69 1008.7
20260506180112 67 293 3.0 12.0 0.00 0.00 0.00 68 1009.0
20260506175534 67 236 2.0 13.0 0.00 0.00 0.00 68 1008.7
20260506175037 67 213 3.0 13.0 0.00 0.00 0.00 67 1008.9
20260506174549 67 252 4.0 12.0 0.00 0.00 0.00 67 1009.0
20260506174037 68 73 3.0 12.0 0.00 0.00 0.00 67 1009.0
20260506173538 68 346 3.0 12.0 0.00 0.00 0.00 66 1008.7
20260506173054 67 319 2.0 17.0 0.00 0.00 0.00 68 1008.9
20260506172538 67 293 4.0 17.0 0.00 0.00 0.00 67 1008.9
20260506172037 69 226 2.0 7.0 0.00 0.00 0.00 65 1008.6
20260506171550 68 241 2.0 9.0 0.00 0.00 0.00 67 1008.7
20260506171037 68 215 3.0 12.0 0.00 0.00 0.00 68 1008.9
20260506170539 67 212 3.0 12.0 0.00 0.00 0.00 68 1008.9
20260506170049 68 259 3.0 12.0 0.00 0.00 0.00 68 1009.2
20260506165537 68 214 3.0 12.0 0.00 0.00 0.00 67 1009.3
20260506165038 68 259 1.0 12.0 0.00 0.00 0.00 67 1009.2
20260506164549 68 324 2.0 12.0 0.00 0.00 0.00 66 1009.3
20260506164037 68 288 2.0 8.0 0.00 0.00 0.00 66 1009.1
20260506163537 68 254 3.0 14.0 0.00 0.00 0.00 67 1009.3
20260506163050 68 221 4.0 14.0 0.00 0.00 0.00 65 1009.3
20260506162537 68 256 3.0 9.0 0.00 0.00 0.00 64 1009.3
20260506162039 69 82 2.0 10.0 0.00 0.00 0.00 64 1009.3
20260506161556 69 257 1.0 11.0 0.00 0.00 0.00 65 1009.4
20260506161037 68 297 1.0 15.0 0.00 0.00 0.00 65 1009.4
20260506160537 68 260 2.0 15.0 0.00 0.00 0.00 65 1009.5
20260506160049 68 316 5.0 13.0 0.00 0.00 0.00 65 1009.6
20260506155541 68 82 5.0 13.0 0.00 0.00 0.00 65 1009.7
20260506155038 69 236 2.0 10.0 0.00 0.00 0.00 63 1009.9
20260506154552 69 311 4.0 15.0 0.00 0.00 0.00 64 1010.1
20260506154038 69 237 3.0 15.0 0.00 0.00 0.00 65 1010.1
20260506153538 68 351 4.0 10.0 0.00 0.00 0.00 65 1010.4
20260506153057 68 256 3.0 10.0 0.00 0.00 0.00 66 1010.6
20260506152538 68 274 3.0 10.0 0.00 0.00 0.00 65 1010.3
20260506152041 68 267 4.0 10.0 0.00 0.00 0.00 65 1010.4
20260506151551 68 56 2.0 13.0 0.00 0.00 0.00 65 1010.1
20260506151037 68 214 3.0 13.0 0.00 0.00 0.00 65 1010.4
20260506150537 68 274 1.0 10.0 0.00 0.00 0.00 66 1010.3
20260506150056 68 340 3.0 7.0 0.00 0.00 0.00 65 1010.2
20260506145539 69 289 2.0 11.0 0.00 0.00 0.00 64 1010.1
20260506145037 69 137 2.0 11.0 0.00 0.00 0.00 65 1010.0
20260506144601 68 119 2.0 9.0 0.00 0.00 0.00 65 1010.0
20260506144037 69 290 3.0 9.0 0.00 0.00 0.00 64 1010.2
20260506143537 69 30 3.0 9.0 0.00 0.00 0.00 63 1010.1
20260506143050 69 122 3.0 8.0 0.00 0.00 0.00 63 1010.0
20260506142539 69 7 3.0 8.0 0.00 0.00 0.00 63 1010.0
20260506142037 69 250 3.0 8.0 0.00 0.00 0.00 63 1009.9
20260506141542 69 333 2.0 7.0 0.00 0.00 0.00 63 1010.0
20260506141037 69 224 2.0 10.0 0.00 0.00 0.00 63 1010.0
20260506140538 69 250 3.0 10.0 0.00 0.00 0.00 62 1010.0
20260506140051 70 242 1.0 13.0 0.00 0.00 0.00 64 1010.2
20260506135537 69 279 3.0 13.0 0.00 0.00 0.00 64 1010.4
20260506135037 69 288 3.0 8.0 0.00 0.00 0.00 65 1010.5
20260506134549 69 203 2.0 7.0 0.00 0.00 0.00 66 1010.8
20260506134037 68 295 2.0 5.0 0.00 0.00 0.00 66 1010.7
20260506133538 68 245 2.0 6.0 0.00 0.00 0.00 68 1010.8
20260506133046 68 229 1.0 8.0 0.00 0.00 0.00 68 1010.8
20260506132537 67 96 2.0 8.0 0.00 0.00 0.00 69 1010.7
20260506132037 67 245 0.0 11.0 0.00 0.00 0.00 70 1010.7
20260506131548 66 240 1.0 11.0 0.00 0.00 0.00 72 1010.7
20260506131037 65 107 2.0 11.0 0.00 0.00 0.00 73 1010.7
20260506130537 64 288 2.0 7.0 0.00 0.00 0.00 73 1010.8
20260506130052 65 262 2.0 5.0 0.00 0.00 0.00 73 1010.8
20260506125537 64 233 1.0 7.0 0.00 0.00 0.00 74 1010.7
20260506125037 64 210 1.0 7.0 0.00 0.00 0.00 75 1010.7
20260506124550 64 254 2.0 7.0 0.00 0.00 0.00 75 1010.7
20260506124041 63 120 2.0 9.0 0.00 0.00 0.00 76 1010.4
20260506123538 63 248 2.0 9.0 0.00 0.00 0.00 77 1010.4
20260506123049 62 207 3.0 11.0 0.00 0.00 0.00 79 1010.7
20260506122538 61 281 2.0 11.0 0.00 0.00 0.00 80 1010.9
20260506122039 60 243 2.0 15.0 0.00 0.00 0.00 80 1010.8
20260506121548 61 305 1.0 15.0 0.00 0.00 0.00 80 1011.1
20260506121037 61 52 2.0 15.0 0.00 0.00 0.00 80 1011.0
20260506120538 61 237 2.0 13.0 0.00 0.00 0.00 80 1011.0
20260506120047 61 137 1.0 10.0 0.00 0.00 0.00 81 1011.1
20260506115541 61 288 2.0 10.0 0.00 0.00 0.00 80 1011.2
20260506115038 61 0 1.0 4.0 0.00 0.00 0.00 80 1011.3
20260506114547 61 80 1.0 8.0 0.00 0.00 0.00 81 1011.4
20260506114038 60 302 2.0 12.0 0.00 0.00 0.00 81 1011.4
20260506113537 60 270 3.0 12.0 0.00 0.00 0.00 82 1011.3
20260506113045 60 58 1.0 6.0 0.00 0.00 0.00 82 1011.2
20260506112538 60 224 2.0 5.0 0.00 0.00 0.00 83 1011.4
20260506112039 59 266 1.0 5.0 0.00 0.00 0.00 83 1011.3
20260506111547 59 256 1.0 8.0 0.00 0.00 0.00 84 1011.2
20260506111037 59 25 2.0 8.0 0.00 0.00 0.00 84 1011.2
20260506110538 59 210 2.0 8.0 0.00 0.00 0.00 84 1011.3
20260506110046 59 117 2.0 7.0 0.00 0.00 0.00 84 1011.4
20260506105538 59 235 0.0 6.0 0.00 0.00 0.00 85 1011.4
20260506105041 58 255 2.0 7.0 0.00 0.00 0.00 85 1011.3
20260506104549 58 236 1.0 7.0 0.00 0.00 0.00 85 1011.3
20260506104037 58 271 1.0 7.0 0.00 0.00 0.00 85 1011.4
20260506103537 58 247 2.0 7.0 0.00 0.00 0.00 85 1011.3
20260506103043 58 241 3.0 6.0 0.00 0.00 0.00 85 1011.3
20260506102540 59 298 0.0 3.0 0.00 0.00 0.00 85 1011.2
20260506102036 59 250 1.0 5.0 0.00 0.00 0.00 85 1011.2
20260506101545 59 0 1.0 5.0 0.00 0.00 0.00 85 1011.2
20260506101037 59 233 1.0 5.0 0.00 0.00 0.00 85 1011.1
20260506100537 58 240 2.0 5.0 0.00 0.00 0.00 85 1011.0
20260506100047 58 277 0.0 5.0 0.00 0.00 0.00 85 1011.0
20260506095538 58 0 2.0 7.0 0.00 0.00 0.00 85 1011.0
20260506095040 58 285 1.0 7.0 0.00 0.00 0.00 86 1011.0
20260506094600 58 98 1.0 7.0 0.00 0.00 0.00 86 1011.1
20260506094037 58 202 2.0 7.0 0.00 0.00 0.00 85 1010.9
20260506093537 58 210 1.0 6.0 0.00 0.00 0.00 86 1011.0
20260506093047 58 0 0.0 6.0 0.00 0.00 0.00 85 1011.0
20260506092537 58 285 1.0 6.0 0.00 0.00 0.00 85 1010.9
20260506092037 58 299 1.0 7.0 0.00 0.00 0.00 85 1010.9
20260506091552 58 189 1.0 7.0 0.00 0.00 0.00 85 1011.0
20260506091037 58 0 0.0 6.0 0.00 0.00 0.00 84 1011.0
20260506090537 58 12 1.0 8.0 0.00 0.00 0.00 84 1011.0
20260506090044 58 222 1.0 8.0 0.00 0.00 0.00 84 1011.0
20260506085537 58 256 2.0 8.0 0.00 0.00 0.00 84 1011.2
20260506085039 58 296 0.0 5.0 0.00 0.00 0.00 84 1011.2
20260506084554 58 198 1.0 7.0 0.00 0.00 0.00 84 1011.1
20260506084038 58 353 1.0 11.0 0.00 0.00 0.00 84 1011.1
20260506083538 59 241 2.0 11.0 0.00 0.00 0.00 84 1011.2
20260506083057 59 106 2.0 11.0 0.00 0.00 0.00 83 1011.2
20260506082537 59 228 2.0 8.0 0.00 0.00 0.00 83 1011.2
20260506082037 59 208 1.0 6.0 0.00 0.00 0.00 83 1011.1
20260506081547 59 266 2.0 8.0 0.00 0.00 0.00 83 1011.2
20260506081047 59 290 2.0 8.0 0.00 0.00 0.00 83 1011.2
20260506080537 59 219 2.0 8.0 0.00 0.00 0.00 83 1011.2
20260506073103 59 144 2.0 8.0 0.00 0.00 0.00 81 1011.0
20260506072541 59 293 1.0 8.0 0.00 0.00 0.00 81 1011.1
20260506072036 59 280 1.0 9.0 0.00 0.00 0.00 81 1011.1
20260506071550 60 0 0.0 12.0 0.00 0.00 0.00 81 1011.0
20260506071037 60 84 4.0 13.0 0.00 0.00 0.00 81 1011.1
20260506070537 60 325 1.0 13.0 0.00 0.00 0.00 81 1011.1